When you browse on this site, cookies collect data to enhance your experience and personalize the content and advertising you see.
Visit our Privacy Policy to learn more. By continuing to use the site, you agree to this use of cookies and data.
  • In Schweiz
  • Länderverzeichnis
  • Für 7 Tage
  • Wassertemperatur
  • Wetterkarte
  • Widgets
  • user-avatar
    Anmelden

    Stündliche Wetter Shlobin

    Heute, 14 Oktober, Montag

    Zeit Temperatur Niederschläge Wind Luftdruck Luftfeuchtigkeit
    00:00 +13°C° 0 mm 2 m/S 752 mmHg 91%
    01:00 +13°C° 0 mm 2 m/S 752 mmHg 91%
    02:00 +13°C° 0 mm 2 m/S 752 mmHg 93%
    03:00 +13°C° 0 mm 2 m/S 752 mmHg 93%
    04:00 +13°C° 0 mm 2 m/S 752 mmHg 93%
    05:00 +12°C° 0 mm 2 m/S 752 mmHg 93%
    06:00 +12°C° 0 mm 3 m/S 752 mmHg 90%
    07:00 +12°C° 0 mm 3 m/S 752 mmHg 87%
    08:00 +13°C° 0 mm 4 m/S 752 mmHg 83%
    09:00 +15°C° 0 mm 4 m/S 752 mmHg 75%
    10:00 +17°C° 0 mm 5 m/S 752 mmHg 67%
    11:00 +19°C° 0 mm 5 m/S 751 mmHg 60%
    12:00 +20°C° 0 mm 5 m/S 751 mmHg 57%
    13:00 +21°C° 0 mm 5 m/S 751 mmHg 54%
    14:00 +22°C° 0 mm 5 m/S 751 mmHg 51%
    15:00 +20°C° 0 mm 5 m/S 750 mmHg 56%
    16:00 +19°C° 0 mm 4 m/S 750 mmHg 60%
    17:00 +18°C° 0 mm 4 m/S 750 mmHg 65%
    18:00 +17°C° 0 mm 4 m/S 750 mmHg 67%
    19:00 +15°C° 0 mm 4 m/S 750 mmHg 68%
    20:00 +15°C° 0 mm 4 m/S 750 mmHg 70%
    21:00 +14°C° 0 mm 4 m/S 750 mmHg 73%
    22:00 +14°C° 0 mm 3 m/S 750 mmHg 75%
    23:00 +13°C° 0 mm 3 m/S 750 mmHg 78%

    Morgen, 15 Oktober, Dienstag

    Zeit Temperatur Niederschläge Wind Luftdruck Luftfeuchtigkeit
    00:00 +13°C° 0 mm 3 m/S 751 mmHg 82%
    01:00 +12°C° 0 mm 3 m/S 751 mmHg 85%
    02:00 +13°C° 0 mm 2 m/S 751 mmHg 89%
    03:00 +13°C° 0 mm 2 m/S 751 mmHg 90%
    04:00 +12°C° 0 mm 2 m/S 751 mmHg 92%
    05:00 +12°C° 0 mm 2 m/S 751 mmHg 93%
    06:00 +13°C° 0 mm 2 m/S 752 mmHg 92%
    07:00 +13°C° 0 mm 1 m/S 752 mmHg 91%
    08:00 +13°C° 0 mm 1 m/S 753 mmHg 89%
    09:00 +15°C° 0 mm 1 m/S 753 mmHg 80%
    10:00 +16°C° 0 mm 1 m/S 753 mmHg 71%
    11:00 +18°C° 0 mm 1 m/S 753 mmHg 63%
    12:00 +19°C° 0 mm 1 m/S 753 mmHg 59%
    13:00 +20°C° 0 mm 1 m/S 753 mmHg 56%
    14:00 +20°C° 0 mm 1 m/S 753 mmHg 52%
    15:00 +19°C° 0 mm 1 m/S 753 mmHg 58%
    16:00 +17°C° 0 mm 2 m/S 753 mmHg 63%
    17:00 +15°C° 0 mm 2 m/S 752 mmHg 68%
    18:00 +14°C° 0 mm 2 m/S 753 mmHg 71%
    19:00 +13°C° 0 mm 3 m/S 753 mmHg 73%
    20:00 +12°C° 0 mm 3 m/S 753 mmHg 76%
    21:00 +12°C° 0 mm 3 m/S 753 mmHg 77%
    22:00 +11°C° 0 mm 3 m/S 753 mmHg 78%
    23:00 +11°C° 0 mm 3 m/S 753 mmHg 80%

    übermorgen, 16 Oktober, Mittwoch

    Zeit Temperatur Niederschläge Wind Luftdruck Luftfeuchtigkeit
    00:00 +11°C° 0 mm 3 m/S 753 mmHg 81%
    01:00 +11°C° 0 mm 3 m/S 753 mmHg 81%
    02:00 +11°C° 0 mm 3 m/S 754 mmHg 82%
    03:00 +11°C° 0 mm 3 m/S 753 mmHg 83%
    04:00 +10°C° 0 mm 3 m/S 753 mmHg 85%
    05:00 +10°C° 0 mm 3 m/S 753 mmHg 86%
    06:00 +11°C° 0 mm 3 m/S 753 mmHg 85%
    07:00 +11°C° 0 mm 4 m/S 753 mmHg 83%
    08:00 +12°C° 0 mm 4 m/S 753 mmHg 82%
    09:00 +14°C° 0 mm 4 m/S 753 mmHg 75%
    10:00 +16°C° 0 mm 5 m/S 752 mmHg 67%
    11:00 +17°C° 0 mm 5 m/S 752 mmHg 60%
    12:00 +19°C° 0 mm 5 m/S 752 mmHg 56%
    13:00 +20°C° 0 mm 5 m/S 751 mmHg 52%
    14:00 +21°C° 0 mm 6 m/S 751 mmHg 49%
    15:00 +20°C° 0 mm 5 m/S 751 mmHg 51%
    16:00 +17°C° 0 mm 5 m/S 750 mmHg 54%
    17:00 +17°C° 0 mm 4 m/S 750 mmHg 57%
    18:00 +15°C° 0 mm 4 m/S 750 mmHg 57%
    19:00 +14°C° 0 mm 4 m/S 750 mmHg 58%
    20:00 +13°C° 0 mm 4 m/S 750 mmHg 58%
    21:00 +13°C° 0 mm 4 m/S 750 mmHg 59%
    22:00 +13°C° 0 mm 4 m/S 750 mmHg 60%
    23:00 +12°C° 0 mm 3 m/S 751 mmHg 62%

    17 Oktober, Donnerstag

    Zeit Temperatur Niederschläge Wind Luftdruck Luftfeuchtigkeit
    00:00 +12°C° 0 mm 3 m/S 751 mmHg 64%
    01:00 +11°C° 0 mm 3 m/S 751 mmHg 67%
    02:00 +12°C° 0 mm 2 m/S 751 mmHg 70%
    03:00 +12°C° 0 mm 2 m/S 751 mmHg 74%
    04:00 +12°C° 0 mm 2 m/S 751 mmHg 77%
    05:00 +12°C° 0 mm 2 m/S 750 mmHg 80%
    06:00 +13°C° 0 mm 2 m/S 751 mmHg 82%
    07:00 +13°C° 0 mm 2 m/S 751 mmHg 83%
    08:00 +13°C° 0 mm 2 m/S 751 mmHg 84%
    09:00 +15°C° 0 mm 2 m/S 751 mmHg 78%
    10:00 +17°C° 0 mm 3 m/S 751 mmHg 72%
    11:00 +18°C° 0 mm 3 m/S 751 mmHg 67%
    12:00 +19°C° 0 mm 4 m/S 751 mmHg 60%
    13:00 +19°C° 0 mm 4 m/S 751 mmHg 53%
    14:00 +20°C° 0 mm 5 m/S 750 mmHg 47%
    15:00 +18°C° 0 mm 4 m/S 750 mmHg 51%
    16:00 +15°C° 0 mm 4 m/S 750 mmHg 56%
    17:00 +14°C° 0 mm 3 m/S 750 mmHg 61%
    18:00 +13°C° 0 mm 3 m/S 751 mmHg 65%
    19:00 +12°C° 0 mm 3 m/S 751 mmHg 69%
    20:00 +13°C° 0 mm 2 m/S 751 mmHg 73%
    21:00 +12°C° 0 mm 2 m/S 751 mmHg 76%
    22:00 +12°C° 0 mm 2 m/S 752 mmHg 79%
    23:00 +12°C° 0 mm 2 m/S 752 mmHg 82%

    18 Oktober, Freitag

    Zeit Temperatur Niederschläge Wind Luftdruck Luftfeuchtigkeit
    00:00 +10°C° 0 mm 2 m/S 752 mmHg 85%
    01:00 +10°C° 0 mm 2 m/S 752 mmHg 88%
    02:00 +10°C° 0 mm 2 m/S 752 mmHg 90%
    03:00 +9°C° 0 mm 2 m/S 753 mmHg 91%
    04:00 +9°C° 0 mm 2 m/S 753 mmHg 92%
    05:00 +9°C° 0 mm 2 m/S 753 mmHg 94%
    06:00 +10°C° 0 mm 1 m/S 753 mmHg 92%
    07:00 +11°C° 0 mm 1 m/S 753 mmHg 91%
    08:00 +11°C° 0 mm 1 m/S 754 mmHg 89%
    09:00 +12°C° 0 mm 1 m/S 754 mmHg 82%
    10:00 +14°C° 0 mm 1 m/S 754 mmHg 75%
    11:00 +15°C° 0 mm 1 m/S 754 mmHg 69%
    12:00 +16°C° 0 mm 1 m/S 754 mmHg 66%
    13:00 +16°C° 0 mm 1 m/S 754 mmHg 64%
    14:00 +18°C° 0 mm 1 m/S 754 mmHg 61%
    15:00 +16°C° 0 mm 1 m/S 754 mmHg 66%
    16:00 +14°C° 0 mm 1 m/S 754 mmHg 71%
    17:00 +13°C° 0 mm 1 m/S 753 mmHg 76%
    18:00 +13°C° 0 mm 1 m/S 754 mmHg 77%
    19:00 +12°C° 0 mm 1 m/S 754 mmHg 79%
    20:00 +12°C° 0 mm 2 m/S 754 mmHg 81%
    21:00 +10°C° 0 mm 2 m/S 754 mmHg 83%
    22:00 +10°C° 0 mm 2 m/S 754 mmHg 85%
    23:00 +9°C° 0 mm 2 m/S 754 mmHg 87%

    19 Oktober, Samstag

    Zeit Temperatur Niederschläge Wind Luftdruck Luftfeuchtigkeit
    00:00 +9°C° 0 mm 2 m/S 754 mmHg 88%
    01:00 +9°C° 0 mm 2 m/S 754 mmHg 88%
    02:00 +9°C° 0 mm 2 m/S 754 mmHg 88%
    03:00 +9°C° 0 mm 2 m/S 754 mmHg 89%
    04:00 +9°C° 0 mm 2 m/S 754 mmHg 89%
    05:00 +9°C° 0 mm 2 m/S 755 mmHg 90%
    06:00 +9°C° 0 mm 2 m/S 755 mmHg 88%
    07:00 +9°C° 0 mm 2 m/S 755 mmHg 86%
    08:00 +10°C° 0 mm 2 m/S 755 mmHg 85%
    09:00 +11°C° 0 mm 3 m/S 755 mmHg 79%
    10:00 +13°C° 0 mm 3 m/S 755 mmHg 73%
    11:00 +14°C° 0 mm 3 m/S 755 mmHg 67%
    12:00 +16°C° 0 mm 3 m/S 755 mmHg 65%
    13:00 +16°C° 0 mm 3 m/S 754 mmHg 63%
    14:00 +17°C° 0 mm 3 m/S 754 mmHg 61%
    15:00 +16°C° 0 mm 3 m/S 754 mmHg 65%
    16:00 +14°C° 0 mm 3 m/S 754 mmHg 70%
    17:00 +12°C° 0 mm 3 m/S 754 mmHg 75%
    18:00 +12°C° 0 mm 3 m/S 754 mmHg 77%
    19:00 +11°C° 0 mm 3 m/S 754 mmHg 78%
    20:00 +11°C° 0 mm 3 m/S 754 mmHg 80%
    21:00 +11°C° 0 mm 3 m/S 754 mmHg 80%
    22:00 +10°C° 0 mm 3 m/S 754 mmHg 81%
    23:00 +10°C° 0 mm 3 m/S 754 mmHg 81%
    Mehr zeigen